Terminal Aerodrome Forecast
Issued by NWS Blacksburg, VA

Current Version | Previous Version | Graphics & Text | Print | Product List | Glossary On
Versions: 1 2 3 4 5 6 7 8 9 10 11 12 13 14 15 16 17 18 19 20 21 22 23 24 25 26 27 28 29 30 31 32 33 34 35 36 37
000
FTUS41 KRNK 280702 AAB
TAFBLF
TAF AMD
KBLF 280702Z 2807/2906 28008G18KT P6SM BKN025 BKN045
     FM280900 28014G24KT P6SM OVC015
     FM281400 29015G25KT P6SM BKN025
     FM282300 29008KT P6SM SCT040=

USA.gov is the U.S. government's official web portal to all federal, state and local government web resources and services.